Main page
METAR-TAF:

METAR-TAF

Airports :

Defence School of Transport

Leconfield, England

latitude: 53-52-37N, longitude: 0-26-15W, elevation: 7 m

Current weather observation

The report was made 1 hour and 12 minutes ago, at 06:50 UTC
Wind 1 kt from the East/Northeast
Temperature 0°C
Humidity 93%
Pressure 1015 hPa
Visibility: 2700 m
haze

METAR: EGXV 200650Z AUTO 07001KT 2700 HZ FEW028/// BKN044/// 00/M01 Q1015

Time: 08:02 (08:02 UTC)


TAF: missing

Weather observations and forecasts of more than 4000 airports (METAR and TAF reports).

The available stations are represented by yellow and red dots on the map.

Hover mouse over dot to see the name of the station.

Then click to see weather observations and forecasts.

To change the map : click on the green buttons with a black cross to zoom in, on the green button with a dash to zoom out, or on the green arrows for adjacent maps.


METAR-TAF: